Location: Newark
(25.4800°N, 85.7200°E)
Time: 09:41:29
(UTC+00:00)

Vanguard 1 Rocket - Pass Details

Date: 23 August 2019
Orbit: 652 x 4225 km, 34.3° (Epoch: 15 September)

Event Time Altitude Azimuth Distance (km) Brightness Sun altitude
Rises 04:21:07 0° 276° (W) 5,084 10.9 58.7°
Reaches altitude 10° 04:24:37 10° 264° (W) 4,534 10.8 59.4°
Maximum altitude 04:35:24 28° 212° (SSW) 4,416 11.2 61.7°
Drops below altitude 10° 04:52:13 10° 162° (SSE) 7,031 12.3 65.0°
Sets 04:59:56 0° 152° (SSE) 8,360 12.6 66.5°
